Location: Alta
(39.2070°N, 120.8111°W)
Time: 00:29:26
(UTC+00:00)

ITAMSAT 1 - Pass Details

Date: 09 April 2023
Orbit: 782 x 797 km, 98.8° (Epoch: 29 May)

Event Time Altitude Azimuth Distance (km) Brightness Sun altitude
Exits shadow 04:27:49 - 191° (SSW) 2,968 10.5 -21.5°
Reaches altitude 10° 04:29:31 10° 199° (SSW) 2,354 10.0 -21.8°
Maximum altitude 04:34:11 33° 263° (W) 1,302 9.2 -22.5°
Drops below altitude 10° 04:38:54 10° 327° (NNW) 2,374 11.0 -23.3°
Sets 04:41:28 0° 337° (NNW) 3,309 11.8 -23.7°
